Wind_Speed
57 57 58 57 57 57 56 57 57 57 57 58 59 59 59 60 60 59 58 58 59 59 59 59 58 57 57 58 58 58 58 59 59 59 58 58 57 56 56 56 56 55 54 52 50 47 45 44 44 44 44 45 47 48 47 47 46 47 47 47 46 45 44 43 42 40 39 38 37 36 35 34 34 34 36 37 38 38 38 38 37 37 36 36 35 35
55 55 54 54 54 54 54 55 55 55 55 57 58 58 58 59 58 58 57 57 58 58 58 58 56 56 56 56 56 56 57 57 57 56 55 55 55 54 54 54 53 53 52 49 47 44 43 42 42 43 44 45 45 46 45 44 44 45 46 45 44 43 41 40 39 38 36 35 34 34 35 35 36 37 38 38 38 38 39 38 38 39 38 38 38 38
52 52 51 51 52 52 52 53 53 53 54 55 56 56 56 56 55 55 55 55 55 56 56 55 54 54 54 54 54 54 54 54 53 53 52 52 52 52 52 51 51 50 49 46 44 42 41 40 40 41 42 43 43 42 42 42 43 43 44 43 42 41 40 38 37 35 34 33 32 32 32 33 35 37 39 40 40 40 40 41 41 42 42 42 42 43
50 49 50 50 50 50 50 50 50 50 51 52 53 54 54 53 52 53 53 52 52 53 53 53 52 52 52 52 52 52 52 51 50 50 50 49 49 48 48 47 47 47 45 43 40 38 38 38 38 39 40 40 40 40 40 40 40 41 41 40 40 40 40 38 36 35 34 33 32 30 30 30 32 35 37 40 42 43 44 45 45 44 44 45 45 46
48 48 48 48 48 48 48 48 48 49 49 50 51 51 51 50 49 50 50 49 49 49 50 49 48 48 48 48 48 48 48 48 47 46 46 46 46 45 44 44 44 43 43 40 37 36 36 36 36 37 37 38 38 37 38 38 37 35 32 33 36 39 41 40 36 35 34 33 32 30 29 29 30 32 33 36 38 41 42 44 46 47 47 48 48 49
47 47 47 47 47 47 47 47 47 47 48 48 49 48 48 47 47 47 47 46 46 46 46 46 45 45 45 45 45 45 45 44 44 43 43 43 43 42 42 41 41 41 40 38 36 35 36 36 35 35 35 35 35 35 35 35 35 32 27 27 30 34 39 40 38 37 35 33 30 28 28 29 30 32 33 34 35 36 37 39 41 44 45 46 47 48
47 47 46 45 46 46 46 46 46 46 46 46 46 45 45 44 44 44 44 44 43 43 43 43 43 43 42 42 43 43 43 42 42 41 41 41 41 41 40 40 39 40 40 39 37 35 35 34 31 32 33 32 32 33 34 34 34 33 32 32 35 39 42 39 38 39 37 34 31 29 28 29 31 33 34 34 34 34 35 36 38 39 41 42 42 43
47 46 45 45 45 46 46 46 45 45 44 44 44 43 42 41 41 41 41 41 41 40 40 40 40 40 40 40 42 42 42 42 41 40 40 40 41 40 40 39 39 40 40 41 38 36 33 26 21 26 31 33 33 35 36 36 34 32 33 35 37 41 42 40 38 37 36 35 34 32 31 31 33 34 35 34 34 34 35 37 38 39 40 41 41 42
47 46 46 46 46 47 47 45 44 44 43 43 42 41 40 39 39 39 39 39 38 38 38 38 39 39 39 39 41 42 42 42 41 40 40 41 41 41 41 40 40 40 41 41 39 35 28 16 13 22 28 33 37 40 39 36 32 31 32 35 37 38 38 39 40 39 35 34 33 32 32 32 33 34 34 34 33 34 35 37 39 40 40 40 41 41
47 47 47 47 48 48 48 46 45 45 44 43 42 41 40 39 39 39 38 38 37 37 37 37 38 39 39 40 41 42 42 42 41 41 41 41 41 41 42 42 41 41 41 41 40 34 24 14 18 27 31 36 42 43 40 36 33 33 34 35 36 37 36 37 38 39 38 37 36 36 35 33 34 35 36 36 37 37 37 37 38 39 40 39 39 39
48 48 49 49 50 50 49 47 47 47 46 45 44 43 41 40 40 39 39 38 38 38 38 38 38 40 40 40 42 42 42 42 42 42 41 42 42 42 43 42 41 41 41 41 39 33 25 21 28 35 38 43 43 39 38 37 37 38 38 39 40 38 36 36 36 37 39 42 43 44 42 39 39 40 42 43 44 44 42 40 40 41 40 38 37 37
49 50 50 50 50 50 49 49 49 49 48 47 46 44 42 41 40 40 40 39 39 40 40 40 40 40 41 41 42 42 42 42 42 42 42 42 42 43 43 42 42 41 40 39 37 33 28 28 32 35 39 41 39 35 36 39 41 42 41 43 43 40 38 39 40 39 40 42 45 47 47 46 45 46 47 48 48 47 45 43 42 42 40 37 35 35
50 50 50 50 50 50 50 50 50 50 50 49 48 46 44 42 42 42 41 41 41 41 42 41 41 41 41 41 42 42 42 42 42 42 42 42 42 42 42 42 41 40 38 37 36 34 31 31 33 33 34 34 31 28 30 34 38 41 43 45 44 42 41 41 43 44 43 42 43 44 45 46 46 46 46 46 46 45 44 42 42 42 41 39 37 36
50 50 50 50 50 51 51 51 51 52 51 51 49 48 46 45 44 44 44 43 43 43 43 42 42 41 41 41 41 42 42 42 43 42 42 42 42 42 41 41 40 39 38 37 37 36 33 33 33 31 29 26 22 21 24 30 36 41 44 45 45 45 44 44 46 47 48 47 45 44 44 44 44 45 45 45 45 46 46 45 44 44 43 42 41 40
50 50 50 51 51 51 51 52 52 52 51 50 50 49 48 47 46 46 45 45 45 45 44 43 43 42 41 42 42 42 43 43 42 42 41 41 41 41 40 40 39 39 38 37 37 36 34 33 32 29 26 23 21 23 27 34 41 44 44 44 44 44 44 45 47 48 50 50 50 49 47 46 46 46 48 48 48 50 50 50 49 47 46 46 45 44
51 51 51 51 51 51 52 52 52 51 50 50 50 49 49 48 47 47 47 46 46 45 45 44 43 43 43 43 43 43 43 43 43 42 41 41 41 41 40 40 39 39 38 37 37 36 34 33 30 26 23 22 25 27 30 39 45 45 46 45 43 43 42 42 43 45 47 49 51 52 51 50 48 47 48 49 50 51 51 52 51 50 49 48 48 48
50 51 51 51 50 50 51 51 50 50 50 49 49 48 49 49 48 47 47 46 46 45 44 44 43 43 44 44 44 44 44 44 43 43 42 41 41 41 41 40 39 39 38 37 37 36 34 33 31 28 25 24 30 35 37 44 46 44 46 46 44 45 45 44 43 43 45 47 49 51 51 51 49 48 47 47 48 49 49 51 51 51 51 52 52 52
48 49 50 49 49 49 50 49 49 49 49 48 47 47 47 47 46 46 46 45 44 44 44 43 43 43 43 44 44 44 44 44 44 43 43 42 42 41 41 40 39 39 38 37 36 36 35 33 32 33 31 29 34 41 44 46 46 45 47 48 47 48 49 50 50 48 48 48 48 49 50 50 50 50 49 49 50 51 51 52 52 53 53 54 53 54
46 47 48 48 48 48 48 48 48 47 47 47 46 46 45 45 45 45 44 44 43 43 43 43 42 42 42 44 44 44 44 44 44 44 43 43 43 42 41 40 39 39 38 38 37 36 36 34 34 37 37 35 37 44 47 48 48 47 48 50 51 52 53 54 55 54 54 53 52 52 53 53 52 52 52 52 53 54 54 54 53 54 54 54 55 55
44 45 46 46 46 47 46 46 46 45 45 45 45 45 44 43 44 44 44 44 44 44 43 43 42 42 44 45 45 45 45 45 45 44 44 45 44 43 42 40 39 39 39 39 39 39 38 37 39 43 42 40 43 48 50 52 52 51 51 51 52 55 57 58 59 59 58 58 58 57 56 56 55 54 55 55 55 55 55 55 54 54 55 56 56 56
44 44 45 45 45 45 44 44 44 44 44 44 44 44 44 43 43 44 44 45 44 44 44 43 43 44 47 46 45 46 46 47 47 47 46 46 46 45 43 41 40 39 39 39 41 43 44 43 45 49 47 45 49 53 56 56 56 56 56 55 55 55 56 58 59 59 59 59 58 58 58 58 58 57 57 58 58 58 58 57 55 55 56 56 56 56
45 45 46 45 44 43 43 42 42 42 42 43 43 44 44 44 44 44 45 45 44 44 44 44 44 46 48 47 47 47 48 48 48 48 48 47 46 46 44 42 41 40 40 41 43 46 47 47 50 54 52 50 53 57 60 60 59 59 61 60 59 58 57 57 58 58 58 57 57 57 58 59 61 62 62 62 62 62 63 63 62 60 59 58 58 58
47 47 48 47 44 44 43 42 42 42 43 43 44 44 45 44 44 44 45 45 45 45 45 45 45 47 48 48 48 48 48 49 49 48 48 47 47 46 45 44 43 42 42 43 45 47 48 49 53 57 58 57 56 58 61 63 62 62 64 65 64 62 60 59 59 59 59 58 57 57 58 59 61 63 64 64 64 65 66 67 66 65 63 63 63 63
49 49 49 47 46 45 45 44 44 44 44 45 45 45 46 46 45 45 46 47 47 46 46 46 46 48 49 49 48 48 48 48 49 49 48 48 47 46 46 45 45 44 44 45 46 48 50 50 53 57 61 61 60 59 61 65 66 66 66 68 68 65 61 59 58 58 59 60 61 62 63 62 62 63 64 66 67 66 66 66 66 66 67 66 66 66
52 52 52 50 48 47 46 46 47 47 48 48 48 48 48 48 48 48 48 49 49 48 49 48 48 49 50 49 49 49 49 49 49 49 49 48 48 47 47 47 47 47 47 47 48 49 51 52 53 56 60 62 62 62 62 64 68 70 69 69 70 68 65 64 63 63 64 65 67 68 68 66 65 64 64 65 66 66 66 66 67 67 67 67 66 66
56 56 55 53 51 49 48 49 51 52 52 52 51 50 50 50 50 50 51 51 51 51 51 51 51 52 52 51 50 50 50 50 50 50 50 50 50 50 50 49 49 49 49 49 50 50 51 53 54 56 58 60 62 63 65 65 67 70 71 71 72 73 72 71 70 70 70 70 71 71 71 70 68 65 64 63 62 63 65 65 65 65 66 66 66 66
57 58 56 55 54 53 53 53 53 54 53 53 53 52 52 52 52 53 53 53 54 54 53 53 53 54 54 53 53 53 52 52 52 52 52 51 52 52 52 52 52 52 52 52 52 53 54 54 54 56 58 60 62 63 65 68 69 70 71 73 75 76 75 74 73 73 74 74 74 74 74 73 71 69 68 67 66 67 67 66 66 67 67 67 66 65
56 57 57 56 56 56 56 55 55 55 55 55 55 55 55 55 54 55 56 56 56 55 55 55 55 55 55 55 55 55 54 53 53 53 54 54 54 54 54 54 54 54 54 55 55 56 57 57 57 57 59 61 63 65 67 70 72 72 72 74 75 76 77 77 78 78 77 77 77 77 77 76 74 72 71 70 71 71 70 69 69 69 68 67 65 64
55 57 57 57 57 56 56 56 56 57 57 57 56 56 57 57 57 58 58 58 58 57 57 57 56 56 56 56 56 56 55 55 55 55 55 56 56 56 56 56 57 57 57 58 59 59 60 61 61 61 61 63 64 66 68 71 74 75 76 77 78 79 81 82 82 81 80 80 79 79 78 77 76 75 74 73 74 73 73 72 71 69 68 67 65 63
54 56 58 58 57 57 57 56 57 58 58 59 59 58 59 59 59 60 60 60 60 59 59 59 58 58 57 57 58 58 58 58 58 58 58 59 59 59 60 60 60 60 60 61 61 62 63 63 64 65 65 66 67 68 70 72 74 76 78 80 81 83 84 84 84 83 82 82 82 81 79 78 77 76 76 76 76 75 74 74 72 70 68 67 65 64
53 54 56 57 58 59 59 58 59 59 59 59 60 61 61 61 62 62 63 63 62 61 61 61 61 60 59 59 60 61 61 61 61 62 62 63 63 64 64 65 64 64 64 64 64 65 65 66 67 68 69 70 71 72 73 74 76 78 79 81 82 83 84 85 85 85 84 84 83 82 81 80 79 79 78 78 78 77 75 74 73 71 69 68 67 66
53 54 55 56 58 59 59 60 61 61 61 61 62 63 63 64 64 64 65 65 63 63 64 63 63 63 62 62 62 62 63 63 63 64 65 65 66 67 68 68 68 68 68 68 68 68 69 69 69 70 71 72 73 75 76 77 79 80 81 82 83 84 85 85 86 86 86 86 85 84 83 82 81 80 79 79 78 78 76 75 73 71 70 69 68 68
55 54 54 56 57 58 58 60 61 62 62 63 64 65 65 65 65 64 64 64 63 63 63 62 61 61 61 61 61 61 61 62 62 64 65 66 66 67 68 69 70 70 70 70 70 70 71 71 72 73 74 75 76 77 79 80 81 82 83 84 85 85 86 87 87 88 88 87 87 86 85 83 82 80 79 78 78 77 76 75 74 72 71 70 70 70
55 55 56 56 57 57 58 59 59 59 59 61 63 64 63 63 63 62 63 63 62 61 61 59 58 58 58 58 58 58 58 59 60 61 61 62 63 64 65 67 67 67 67 67 67 67 68 68 70 71 72 74 76 78 80 80 81 82 83 84 85 86 86 87 88 88 87 86 86 86 85 84 82 80 78 77 77 76 75 75 74 73 71 71 70 70
55 56 57 58 58 58 58 59 57 56 57 59 60 60 60 60 60 60 61 61 61 61 60 59 58 57 57 58 58 58 57 57 57 57 58 58 58 59 62 64 64 64 63 63 62 62 62 63 65 66 68 70 72 74 74 75 76 77 79 80 81 82 82 84 84 84 84 84 84 84 84 83 81 80 79 77 77 76 76 75 74 73 72 72 71 71
56 57 58 59 60 59 59 58 57 56 57 58 58 57 58 58 59 60 60 60 61 61 60 59 59 58 58 59 59 59 58 58 57 57 56 56 56 56 57 59 60 60 60 60 59 58 59 61 62 63 65 67 69 69 69 69 70 71 71 72 73 73 75 77 78 78 78 79 81 81 81 80 80 79 79 78 77 77 76 75 74 74 73 72 72 72
58 58 59 61 61 61 61 60 59 58 58 57 57 58 59 59 60 60 61 61 61 61 61 61 61 60 60 60 60 60 60 59 59 58 58 58 58 57 57 58 58 58 58 59 58 59 60 61 62 63 64 66 68 68 68 68 68 67 66 66 66 67 69 70 72 72 72 73 74 75 74 74 75 76 77 77 76 76 75 75 74 74 73 73 73 73
60 61 62 63 63 63 63 63 62 60 59 59 59 60 61 62 62 62 62 62 62 62 63 63 63 63 63 62 62 62 61 61 61 60 60 60 60 60 60 60 59 58 58 58 58 59 61 62 63 64 65 67 69 70 70 70 68 67 66 65 66 66 67 68 68 68 68 68 68 68 67 67 69 71 72 72 72 73 73 73 73 73 73 73 73 73
63 64 65 65 65 65 65 65 64 62 61 61 62 63 64 64 65 65 65 64 63 64 65 66 66 66 65 65 65 64 64 64 63 62 62 61 61 61 61 61 60 59 59 59 59 60 61 63 64 66 66 67 69 71 72 72 72 71 70 69 68 68 68 69 69 69 68 67 67 66 66 65 66 68 68 68 68 68 68 68 68 69 69 70 70 71
65 66 67 67 67 67 67 67 66 64 62 62 64 66 67 68 68 68 67 65 65 68 69 68 68 68 68 68 68 68 68 67 67 66 65 65 64 64 63 63 62 62 61 61 61 62 63 64 66 67 68 69 70 71 72 73 74 74 73 73 72 71 71 71 71 71 70 69 69 69 68 68 69 69 69 68 67 66 65 65 64 64 65 65 66 67
67 68 68 68 68 68 68 68 68 66 64 65 66 68 69 70 70 69 68 68 69 71 71 71 71 71 71 71 71 71 71 71 71 70 70 69 69 68 67 67 66 66 66 66 65 65 66 66 67 69 70 71 71 72 73 74 75 75 75 76 75 75 75 75 75 74 73 73 72 72 72 72 72 72 72 71 69 68 67 66 64 63 63 63 63 63
69 69 69 70 70 70 70 70 69 68 67 68 69 70 70 71 71 71 71 72 72 73 73 74 74 74 74 74 74 74 74 74 74 74 74 73 73 72 71 71 71 71 71 71 70 70 70 70 70 71 71 72 73 73 74 76 76 77 77 78 78 77 77 77 78 77 77 76 76 76 75 76 76 76 75 74 73 72 70 69 67 66 64 63 63 63
69 70 70 71 71 71 71 72 71 70 70 71 72 72 73 72 72 73 73 74 74 75 76 76 76 76 77 77 77 77 77 77 77 77 77 76 76 75 75 75 75 75 75 75 75 75 75 75 74 74 74 74 74 74 75 76 77 78 79 79 80 80 80 80 80 80 80 80 80 79 79 79 80 80 79 79 78 76 75 73 70 69 67 66 65 65
67 69 70 71 71 72 72 72 72 71 72 73 73 74 74 74 74 75 75 76 76 77 77 78 78 79 79 79 79 79 80 80 80 80 80 79 79 79 79 79 79 79 78 78 78 78 78 78 77 76 76 75 75 75 76 76 77 78 79 80 80 81 81 82 82 82 82 83 83 83 83 82 83 83 83 83 83 81 80 78 75 73 71 69 68 67
65 67 68 70 71 72 72 73 72 72 72 73 74 75 75 76 76 76 77 77 78 78 79 80 80 80 81 81 82 82 82 82 82 83 83 82 82 82 82 83 82 82 82 82 81 81 80 79 79 78 77 76 76 75 76 76 77 78 79 80 81 81 81 82 82 83 83 84 85 85 85 85 85 85 85 86 86 86 85 83 81 79 76 74 72 71
64 65 66 68 69 70 71 72 72 72 72 72 73 74 75 76 77 77 78 78 79 79 80 80 81 82 82 83 83 84 84 84 84 84 85 84 84 84 84 84 84 84 84 84 84 83 83 82 81 80 79 78 77 76 76 76 76 77 79 80 81 81 81 81 82 83 83 84 85 86 86 87 87 87 87 87 88 88 88 88 86 84 82 80 78 77
63 64 65 66 67 68 69 70 71 71 72 72 72 73 74 75 76 76 77 78 79 80 80 81 81 82 83 83 84 85 85 85 86 86 86 86 85 85 85 85 85 85 85 85 85 85 84 84 83 82 82 81 79 78 77 76 76 77 78 79 80 81 80 80 81 82 83 84 85 85 86 87 87 88 88 88 89 89 89 89 89 88 86 85 83 81
59 60 62 64 65 66 68 69 69 70 71 72 72 73 73 74 74 75 76 77 78 78 79 80 81 81 82 83 84 84 85 86 86 86 86 86 85 85 84 85 85 85 86 86 86 86 85 85 85 84 83 83 82 80 79 78 77 77 77 78 79 79 79 79 80 81 82 84 85 85 85 86 87 87 88 88 88 89 89 89 89 88 88 86 85 84
52 55 57 59 61 63 65 66 67 69 70 71 71 72 73 74 74 75 75 76 76 77 77 78 78 79 80 81 82 83 84 84 84 84 85 85 85 85 85 85 85 86 86 87 86 86 86 85 85 84 84 83 83 82 81 81 80 80 79 79 79 79 79 80 81 81 81 83 84 85 85 85 85 86 86 87 87 88 88 89 88 88 87 86 85 85
48 50 51 53 55 57 59 60 62 64 66 67 68 69 70 71 71 72 73 73 74 74 75 75 76 77 78 79 80 81 81 82 82 82 82 83 83 83 83 84 84 85 85 86 86 86 86 85 85 84 84 83 82 81 80 80 80 79 78 78 77 78 79 80 81 81 81 82 83 84 84 84 84 84 84 85 86 87 88 87 86 86 86 85 85 85
45 46 47 49 50 51 52 54 55 57 58 59 61 62 63 64 66 67 68 69 70 71 71 71 72 72 73 74 75 76 77 78 79 79 79 80 80 80 79 79 79 80 80 81 82 82 83 83 83 82 82 82 81 80 79 79 78 77 76 74 74 74 75 76 77 78 78 80 81 81 82 82 82 82 82 82 83 84 85 85 84 84 83 83 84 84
Wind_Direction
248 249 250 251 252 253 253 253 253 253 253 253 253 254 254 255 256 257 257 258 258 259 260 260 260 260 261 261 262 262 262 262 263 264 266 266 267 267 267 267 267 267 267 268 269 269 269 268 268 268 268 271 274 275 277 278 278 279 279 279 279 280 281 283 284 284 284 283 280 276 271 265 261 258 254 255 256 256 257 258 256 256 257 258 261 263
247 249 250 251 251 251 251 251 252 252 252 252 253 253 253 254 255 257 257 258 259 259 260 261 261 261 261 261 261 262 262 262 263 264 264 265 265 265 265 265 265 265 266 267 269 268 267 266 265 267 269 271 273 275 277 278 279 279 280 282 283 284 284 285 286 286 285 283 279 275 271 267 263 260 258 258 259 259 258 260 259 258 261 264 266 269
247 248 249 250 250 250 250 251 251 252 252 252 253 253 253 254 255 257 257 258 259 259 260 260 260 260 260 260 260 261 261 261 261 262 262 263 263 263 264 264 265 266 267 267 267 267 267 267 267 269 270 272 273 274 276 277 279 280 283 285 287 289 289 288 288 288 288 286 283 279 274 270 264 260 260 259 259 258 257 260 261 260 262 266 268 270
247 248 248 248 249 250 251 251 251 251 252 252 253 254 254 255 256 256 257 257 258 259 259 259 260 260 259 259 260 260 260 260 260 261 261 261 262 263 263 264 265 266 267 267 267 268 268 269 269 270 271 272 273 275 276 278 280 285 289 292 293 293 292 290 290 289 287 286 285 283 278 273 268 264 263 261 259 258 259 261 262 262 264 267 269 272
246 247 247 248 249 249 250 250 251 251 252 253 253 254 255 256 256 257 257 257 258 258 259 260 260 260 260 260 259 259 259 260 260 260 261 261 261 262 262 263 264 265 266 267 268 268 269 269 269 269 270 273 276 278 280 282 283 287 293 296 297 296 292 290 288 286 284 283 282 281 280 278 275 273 270 266 264 263 263 264 264 264 267 270 272 274
245 246 246 247 248 249 249 250 250 251 251 253 254 256 257 258 258 258 258 258 258 259 259 259 259 259 259 259 259 259 259 259 259 259 260 260 261 261 261 262 263 264 266 267 267 267 267 267 269 271 274 277 280 281 281 280 279 279 275 271 274 277 279 282 284 282 281 281 279 276 279 281 281 277 274 272 271 271 271 271 270 269 271 272 274 276
244 245 246 247 248 248 249 249 250 251 252 253 255 257 258 258 259 259 259 259 258 258 259 259 258 258 258 259 259 259 259 258 258 258 259 260 261 261 261 261 262 263 265 264 263 263 264 269 278 283 284 284 282 280 277 273 270 269 264 258 255 254 257 263 271 276 278 279 279 278 281 286 287 284 279 277 277 278 278 277 276 275 275 276 277 278
243 244 245 246 247 248 249 249 250 252 253 254 256 257 258 258 258 258 259 259 258 258 258 259 259 259 258 258 259 258 258 258 258 258 258 259 259 260 261 261 261 262 263 262 261 261 263 274 289 287 285 287 283 275 271 269 267 267 265 263 260 258 258 257 260 267 274 276 276 278 280 285 289 289 286 283 282 282 281 279 277 277 278 279 280 281
242 243 244 245 245 246 248 249 250 251 252 254 256 256 257 257 257 257 258 258 258 258 258 258 258 258 257 257 257 258 258 258 258 258 257 258 259 259 260 260 260 260 261 261 261 261 263 274 278 268 271 277 275 269 265 265 267 269 268 267 265 265 263 263 262 264 268 268 266 271 276 280 283 285 286 286 286 284 282 280 279 279 280 281 282 284
242 242 242 243 244 245 246 248 249 250 251 252 254 254 254 255 255 256 257 257 258 257 257 257 256 257 256 256 256 256 257 257 258 258 258 258 258 258 259 258 258 258 258 260 260 261 262 248 233 238 243 251 259 264 267 269 271 271 270 269 269 268 263 262 264 263 262 261 258 263 271 274 274 276 279 281 281 282 284 286 286 286 286 285 285 285
242 242 242 243 244 245 246 247 248 249 250 251 252 253 254 254 255 256 257 257 258 258 257 256 255 256 256 256 255 255 256 256 257 258 258 258 257 256 256 256 256 256 257 258 259 261 259 242 229 228 231 238 248 258 265 270 271 269 269 270 271 268 261 258 259 258 257 257 258 263 269 271 270 271 273 275 276 278 282 286 288 290 290 288 286 286
241 242 242 243 245 246 247 248 249 250 251 252 252 253 254 255 256 256 257 257 257 257 257 256 255 254 254 255 255 255 255 256 256 256 256 256 255 255 255 254 254 255 255 256 257 257 252 245 238 233 233 240 248 257 266 270 270 268 267 266 265 263 259 257 256 255 255 257 260 265 269 270 271 271 272 274 275 277 280 283 285 287 288 287 286 286
241 242 243 244 246 247 248 248 249 250 251 252 253 253 254 255 256 256 256 256 256 255 255 255 255 254 254 254 255 255 255 254 253 253 253 253 253 254 254 254 254 254 254 254 254 253 249 245 243 240 238 242 250 262 272 275 272 269 264 258 258 260 260 257 256 257 260 262 264 267 270 272 273 274 275 276 277 277 278 279 281 283 284 284 283 283
243 243 244 245 246 247 247 248 248 249 250 251 253 254 254 254 255 255 255 254 254 253 253 254 255 255 255 254 253 253 253 253 252 252 251 252 252 252 253 253 253 253 253 251 251 252 250 247 247 246 243 242 244 250 256 260 261 261 260 257 255 257 258 256 255 256 259 262 265 269 272 274 276 277 277 278 278 279 278 278 279 281 282 281 281 281
244 243 243 244 245 245 246 247 247 249 250 251 253 253 253 253 253 252 252 252 252 253 253 253 254 254 254 253 252 252 252 252 252 252 251 251 251 251 251 251 251 252 251 251 251 252 251 249 248 248 245 239 231 230 237 245 248 251 255 255 253 255 257 258 258 258 259 261 263 267 270 273 276 278 279 279 280 281 282 281 281 281 281 281 281 281
244 244 243 244 244 245 246 247 248 249 250 251 251 252 253 252 251 251 251 251 251 252 253 253 253 252 252 252 252 252 252 251 251 251 251 250 250 250 249 249 250 251 251 251 251 252 251 249 246 241 237 232 223 220 228 238 242 246 250 251 250 252 254 257 259 260 261 262 262 264 267 269 272 275 277 279 280 281 282 283 282 282 281 281 281 281
245 246 245 245 245 246 247 247 249 249 249 250 251 252 252 252 251 252 251 251 251 252 252 253 252 252 252 252 252 251 251 250 251 251 250 250 250 249 249 249 249 249 250 251 252 252 250 248 243 230 217 218 219 216 222 234 239 243 247 248 249 251 251 253 256 256 258 260 261 261 263 265 267 270 273 275 277 279 280 281 282 282 282 281 281 281
245 246 246 246 245 246 246 247 248 248 249 250 250 251 252 252 252 252 251 251 251 251 250 251 251 251 252 252 251 251 251 251 251 251 251 250 249 249 248 248 248 248 249 249 249 249 247 243 237 225 212 210 217 218 221 230 236 239 244 246 247 249 250 251 253 254 256 258 259 260 262 264 265 267 269 272 274 276 278 279 280 281 281 282 282 281
246 247 247 246 246 245 245 246 246 247 248 248 248 248 249 250 250 250 250 249 248 248 248 248 249 249 250 249 250 250 252 252 253 252 252 251 250 249 248 247 246 246 246 244 241 239 239 236 228 222 215 212 218 223 226 232 237 239 244 246 245 247 249 249 249 251 255 257 259 262 264 265 266 267 269 271 272 274 275 276 277 277 278 279 280 281
246 246 247 246 246 246 245 245 246 245 246 246 246 246 246 247 248 248 247 247 246 246 247 247 247 247 247 247 248 250 251 251 252 252 252 252 251 249 248 246 245 243 242 240 236 230 228 227 223 219 216 213 218 226 229 235 242 244 245 246 244 244 246 248 247 249 252 256 260 264 266 267 267 267 268 269 270 271 272 273 274 275 276 277 278 280
245 246 247 246 246 246 246 246 246 245 245 245 245 244 244 244 246 246 247 246 246 246 246 246 246 246 246 247 247 248 249 250 251 251 252 251 251 250 248 246 243 241 239 236 233 229 224 221 219 219 219 215 215 222 228 234 241 244 244 243 242 241 243 246 247 249 251 254 257 261 264 266 267 266 266 266 266 268 269 270 271 272 274 275 276 277
245 245 246 246 245 246 246 246 246 246 245 245 244 244 244 243 244 245 246 247 247 246 245 245 245 245 246 246 246 247 249 250 250 251 251 251 251 251 250 247 243 240 237 233 231 231 229 223 219 220 222 220 217 219 224 230 237 241 242 243 241 240 241 245 247 249 252 254 256 258 261 263 265 265 265 265 265 267 268 269 270 271 271 271 272 273
244 245 246 246 245 246 246 246 246 246 246 245 244 244 245 244 244 245 246 247 247 247 246 246 245 247 248 247 247 248 249 250 251 251 251 251 251 251 250 248 245 241 239 235 232 233 233 230 225 222 223 224 222 221 223 228 233 237 240 241 241 241 243 246 249 251 254 255 256 259 263 265 265 266 266 267 268 269 269 269 270 271 271 272 272 272
243 244 245 246 245 245 245 245 246 246 246 247 246 246 246 245 245 245 247 248 248 249 249 249 248 249 250 250 250 250 251 251 252 252 252 251 250 250 249 248 246 243 241 239 237 236 236 235 232 228 227 228 228 227 226 227 231 235 238 240 241 243 247 249 251 254 256 257 258 262 267 268 268 268 269 270 270 271 271 270 270 271 273 274 274 274
242 243 244 244 244 244 245 245 246 246 246 246 246 246 246 246 246 246 246 247 248 249 250 251 251 251 252 252 253 253 254 254 254 253 253 253 252 250 248 246 245 244 242 241 240 240 240 239 237 235 234 234 234 233 232 231 232 234 237 239 241 244 249 252 254 256 259 261 262 265 267 268 269 270 270 271 271 271 271 271 271 272 273 274 275 274
242 242 243 244 245 245 245 245 244 244 244 244 245 245 246 247 248 248 248 248 249 249 250 251 252 253 254 254 254 255 255 255 255 254 254 253 253 252 250 248 246 244 243 242 241 241 241 242 241 240 238 238 238 238 237 237 236 235 237 239 241 244 248 251 255 259 262 264 265 266 267 267 268 268 268 268 269 270 270 271 271 272 273 274 275 275
243 243 243 243 244 244 244 244 244 244 245 246 247 248 248 248 249 249 249 249 249 250 250 251 252 253 254 255 256 256 257 256 256 256 255 254 253 252 251 250 248 246 245 243 242 241 241 241 241 241 241 240 240 240 239 239 239 239 240 241 242 244 247 250 254 259 262 263 264 265 266 267 268 267 266 266 267 268 270 271 271 273 273 274 274 274
242 244 243 242 242 243 244 244 245 246 245 245 246 247 247 248 248 249 249 249 250 250 251 251 252 253 254 256 257 257 257 257 257 257 256 256 254 253 252 250 249 248 246 245 244 243 242 242 242 242 241 241 240 240 240 239 240 241 242 243 243 245 247 250 255 259 260 261 262 263 265 266 267 267 267 266 267 268 270 270 271 272 273 273 273 272
239 242 243 242 242 243 244 244 245 246 246 246 246 246 247 248 248 249 249 250 251 251 252 252 252 253 254 255 257 257 257 257 257 257 257 256 256 255 253 252 250 249 248 247 246 245 245 244 244 244 243 243 242 242 241 241 241 243 244 245 246 247 249 253 256 258 259 260 261 263 264 265 266 267 267 267 268 269 270 270 271 271 272 272 271 271
239 240 242 242 242 242 242 243 244 245 246 246 246 245 246 247 248 249 249 250 251 251 252 253 253 253 253 254 255 256 257 257 257 257 257 257 256 256 255 254 253 251 250 249 248 248 247 246 246 246 246 246 246 246 245 245 245 246 247 248 250 251 253 256 257 258 259 260 261 262 263 264 265 266 267 267 268 269 269 270 270 270 270 270 270 269
240 240 242 243 243 243 243 242 243 244 245 246 247 247 247 247 248 249 250 251 251 252 253 254 254 254 254 254 255 256 257 258 258 258 258 257 257 257 256 256 255 254 253 252 252 251 250 250 249 249 249 249 249 249 249 249 249 250 251 251 253 254 256 258 259 260 260 261 262 262 263 264 265 265 266 267 268 268 269 269 269 269 269 268 268 267
243 242 242 244 244 244 244 244 244 244 245 246 248 249 249 249 250 251 252 253 253 254 254 255 256 256 256 256 256 257 257 257 257 256 256 256 256 257 257 257 257 257 256 255 255 255 254 254 253 252 252 252 252 251 251 252 252 252 253 254 255 256 257 259 260 261 262 263 263 264 264 265 265 266 266 267 268 268 268 268 268 268 267 267 266 266
248 246 245 245 245 246 246 246 245 246 247 248 249 250 251 253 255 256 256 257 258 258 258 258 258 258 257 256 254 254 254 253 253 253 253 254 255 255 257 258 258 259 259 258 258 257 257 257 256 256 255 255 254 254 254 254 254 254 255 256 257 258 259 260 261 262 263 264 265 266 267 267 266 266 266 266 266 267 267 267 267 267 266 266 265 265
250 250 249 249 248 248 248 248 248 249 250 250 251 253 254 256 258 258 259 260 261 260 260 260 258 257 256 255 253 251 250 250 251 252 252 253 254 255 256 257 258 259 260 260 260 259 259 258 258 257 257 257 256 256 255 256 256 257 258 258 259 259 260 261 262 263 264 266 267 267 268 268 268 268 267 266 266 266 265 265 265 265 265 264 264 264
248 250 251 251 251 251 251 252 253 253 253 253 253 254 255 256 257 257 257 258 258 258 258 258 257 256 256 256 256 254 253 252 252 252 253 253 254 255 256 256 257 258 259 259 260 260 260 260 259 259 258 258 258 257 258 258 258 259 259 259 260 261 261 262 263 263 264 265 266 266 266 267 267 267 267 267 266 265 265 264 264 264 263 263 263 263
247 248 250 251 252 253 253 253 254 254 254 255 256 257 257 257 257 257 256 256 257 257 258 259 259 258 257 257 257 257 257 256 255 254 254 253 253 252 253 254 255 256 258 258 258 259 260 260 260 260 261 261 261 261 261 260 260 260 260 260 261 261 262 262 262 263 263 263 263 263 264 265 265 266 266 265 265 264 264 264 264 263 263 263 263 263
247 247 248 249 251 252 252 253 252 252 253 254 256 256 257 257 257 257 258 258 259 260 260 261 260 260 259 258 258 258 258 257 256 255 254 253 252 251 252 253 254 255 256 258 259 259 260 260 261 261 262 263 263 264 264 263 262 262 262 262 262 261 260 260 261 261 261 260 261 261 262 263 263 263 264 264 264 264 264 264 263 263 263 262 262 262
248 247 247 247 248 249 250 251 251 252 252 253 254 254 255 255 256 256 257 258 259 260 261 262 262 262 262 261 261 260 260 259 259 258 256 255 254 254 253 253 254 254 255 256 258 259 261 262 262 263 263 263 264 265 266 266 265 264 263 262 262 261 261 261 261 261 260 260 260 261 261 261 261 261 261 262 262 262 262 262 261 261 261 260 260 260
248 249 249 249 249 249 249 250 250 250 250 251 253 254 255 255 255 256 256 257 259 260 260 261 262 263 264 264 264 264 264 264 263 263 262 260 259 258 258 257 256 256 256 256 257 257 258 259 260 261 262 262 263 263 265 266 266 266 265 264 262 262 261 262 262 262 262 262 262 262 262 261 260 259 259 259 259 259 259 259 259 259 259 259 259 260
250 251 251 251 252 252 252 253 253 252 251 251 252 253 254 255 256 257 258 259 260 260 261 261 262 263 263 264 265 266 266 267 267 267 267 266 265 264 263 262 262 261 260 259 258 257 257 257 257 257 258 259 259 260 261 262 263 264 265 265 264 263 262 262 262 262 263 263 263 263 263 263 262 262 261 260 260 259 259 258 258 257 257 258 259 259
250 251 252 253 253 253 254 255 255 255 255 254 254 255 255 256 257 259 260 260 260 261 262 263 263 263 264 265 265 266 267 267 268 268 268 268 268 267 267 267 266 265 264 263 262 260 259 258 257 256 256 257 257 258 258 259 261 262 263 264 264 264 264 264 264 264 264 264 264 264 265 265 265 265 264 264 263 262 261 260 258 257 257 257 257 258
249 250 251 251 252 253 254 254 255 255 255 255 255 256 256 257 258 259 260 260 260 261 262 263 264 264 265 265 266 266 266 267 267 267 268 268 268 268 268 268 268 268 267 267 266 264 263 262 260 259 258 258 257 257 257 258 259 260 261 262 263 264 264 265 265 266 266 266 266 266 266 266 266 266 266 266 265 264 263 262 260 259 258 257 257 257
249 250 251 251 252 252 253 253 254 254 254 255 255 255 256 256 257 258 259 259 260 261 262 263 263 264 265 265 266 266 266 267 267 267 268 268 268 269 269 269 268 268 268 267 267 266 266 264 263 262 261 260 259 258 258 258 258 258 259 260 261 262 262 263 264 265 266 266 266 266 267 267 267 268 268 268 267 267 266 265 263 262 261 259 258 258
249 250 251 252 253 253 254 254 254 254 255 255 256 257 257 258 258 258 259 259 260 261 262 263 263 264 265 265 266 267 267 267 268 268 269 269 269 269 269 269 269 269 269 268 268 267 267 266 265 264 263 262 261 260 259 259 259 259 259 259 259 259 260 261 261 262 263 264 265 265 266 266 267 267 268 268 268 268 268 267 266 265 264 262 260 259
248 249 250 251 252 253 254 255 255 255 255 255 256 257 258 258 259 259 259 260 260 261 261 262 263 264 264 265 266 266 267 267 268 268 269 269 269 269 269 270 270 270 270 270 270 269 269 268 268 267 266 264 263 262 261 261 260 261 260 260 259 259 259 259 259 260 260 261 262 263 264 264 264 265 266 267 267 268 268 268 268 268 267 265 264 263
250 250 250 251 252 253 254 255 255 256 256 255 256 256 257 258 258 259 260 260 260 261 261 262 263 263 264 264 265 266 266 267 267 267 268 268 268 269 269 269 270 270 270 270 270 270 270 270 270 269 269 268 266 265 263 262 262 261 262 262 261 260 259 259 259 259 259 259 260 260 261 262 262 263 263 264 265 266 267 267 268 268 268 267 267 266
251 251 251 252 253 253 254 255 255 256 257 257 257 257 257 257 258 258 259 259 260 260 261 261 262 262 263 264 264 265 266 266 266 267 267 267 268 268 269 269 270 270 270 270 271 271 271 271 271 271 270 270 269 267 266 264 263 262 262 262 262 261 261 261 260 260 260 260 259 259 259 259 260 260 261 262 262 263 264 265 266 266 267 267 267 266
253 253 253 254 254 254 255 255 256 257 257 258 258 259 259 259 259 259 259 259 259 260 260 260 261 261 262 263 263 264 265 265 266 266 267 268 268 269 269 269 270 270 270 270 270 270 270 270 270 270 270 270 270 269 269 268 267 266 265 264 264 263 263 262 262 261 261 261 260 260 259 259 259 259 259 260 260 261 262 262 263 264 264 265 265 266
254 254 254 254 254 255 255 256 256 257 257 258 258 259 259 259 259 260 260 260 260 260 260 261 261 262 262 263 263 264 264 265 265 266 267 267 268 268 268 268 269 269 269 269 269 269 269 269 269 269 270 270 270 270 270 269 269 268 268 267 266 266 265 265 264 263 262 262 262 261 260 260 259 259 259 259 260 260 260 261 261 262 263 263 264 264
254 255 254 254 255 255 255 255 256 256 257 257 258 259 259 260 260 261 262 262 262 262 262 262 262 262 262 263 263 264 264 265 266 266 266 266 266 266 266 266 266 267 267 267 268 268 269 269 270 270 270 271 271 271 270 270 269 269 268 267 266 266 265 265 264 264 263 263 263 262 262 261 260 260 259 259 260 260 260 260 260 261 261 262 262 262
255 256 256 256 257 257 257 258 258 259 259 259 260 261 262 262 263 263 263 263 264 264 264 264 264 263 263 263 263 264 264 265 265 266 266 266 266 266 266 266 265 265 265 266 266 267 267 268 268 269 269 269 270 270 271 271 271 270 269 268 267 266 264 263 262 262 261 261 261 262 262 263 262 262 261 260 259 259 260 260 260 260 261 261 261 261
Height
10577 10580 10583 10586 10589 10593 10595 10596 10598 10601 10603 10603 10603 10605 10607 10607 10609 10613 10615 10617 10617 10618 10619 10621 10624 10626 10627 10627 10627 10628 10628 10627 10627 10628 10630 10631 10632 10634 10634 10634 10634 10635 10636 10639 10642 10645 10646 10645 10644 10643 10642 10642 10641 10641 10642 10642 10641 10640 10640 10641 10641 10641 10641 10641 10640 10641 10641 10641 10641 10641 10641 10642 10643 10644 10644 10644 10645 10646 10647 10648 10649 10649 10650 10651 10652 10652
10572 10575 10578 10582 10584 10585 10587 10589 10591 10594 10595 10596 10596 10598 10600 10601 10604 10607 10609 10611 10611 10611 10613 10615 10617 10619 10620 10620 10620 10621 10621 10621 10622 10623 10625 10625 10626 10627 10628 10628 10628 10629 10631 10635 10637 10639 10640 10640 10639 10639 10639 10638 10638 10638 10638 10638 10637 10636 10636 10636 10636 10636 10636 10636 10635 10635 10636 10636 10636 10636 10637 10637 10638 10639 10640 10640 10641 10643 10643 10644 10645 10645 10646 10647 10647 10647
10568 10571 10573 10575 10577 10578 10580 10583 10585 10587 10588 10589 10590 10591 10593 10596 10599 10601 10603 10605 10605 10605 10606 10608 10610 10612 10613 10613 10614 10614 10614 10616 10617 10618 10619 10620 10620 10621 10622 10623 10623 10624 10626 10630 10633 10635 10636 10636 10636 10636 10635 10635 10635 10635 10635 10635 10634 10634 10633 10633 10633 10632 10631 10631 10631 10631 10631 10631 10631 10631 10632 10633 10634 10635 10636 10636 10637 10639 10639 10640 10641 10641 10642 10642 10643 10643
10563 10566 10567 10569 10571 10573 10575 10577 10579 10580 10581 10582 10583 10585 10588 10591 10594 10595 10597 10598 10599 10599 10599 10601 10604 10605 10606 10607 10607 10607 10608 10609 10611 10612 10613 10614 10614 10616 10617 10618 10618 10619 10621 10625 10629 10631 10632 10632 10632 10632 10632 10632 10632 10633 10633 10632 10632 10632 10631 10630 10629 10627 10626 10626 10626 10626 10626 10626 10626 10626 10627 10628 10629 10630 10631 10632 10633 10634 10635 10635 10636 10636 10637 10638 10638 10638
10559 10560 10561 10563 10565 10567 10569 10570 10572 10574 10575 10575 10577 10579 10582 10585 10588 10589 10591 10592 10593 10593 10593 10596 10598 10598 10599 10601 10601 10601 10602 10603 10605 10606 10607 10608 10609 10610 10611 10613 10613 10614 10616 10620 10624 10627 10628 10628 10629 10629 10629 10630 10630 10630 10630 10630 10629 10630 10631 10630 10628 10624 10620 10619 10620 10621 10621 10621 10621 10621 10622 10622 10623 10625 10626 10626 10627 10629 10630 10630 10631 10631 10632 10633 10633 10633
10553 10554 10556 10558 10560 10561 10563 10564 10566 10567 10568 10569 10571 10574 10577 10580 10582 10583 10584 10586 10587 10587 10588 10590 10591 10592 10594 10594 10595 10595 10596 10598 10599 10601 10601 10602 10603 10605 10606 10608 10609 10610 10612 10615 10619 10622 10623 10625 10627 10627 10628 10628 10628 10627 10626 10625 10624 10625 10628 10630 10628 10621 10614 10614 10616 10616 10616 10617 10617 10617 10617 10618 10618 10619 10620 10621 10622 10623 10625 10625 10626 10626 10627 10627 10628 10628
10547 10548 10551 10553 10554 10555 10556 10558 10560 10561 10563 10564 10567 10569 10572 10574 10576 10577 10578 10580 10581 10582 10583 10584 10586 10587 10588 10589 10589 10589 10590 10592 10594 10595 10596 10597 10598 10600 10602 10603 10605 10606 10608 10610 10614 10618 10620 10624 10629 10630 10628 10626 10624 10621 10618 10617 10617 10619 10621 10622 10620 10613 10608 10611 10613 10612 10613 10613 10613 10613 10613 10614 10614 10614 10615 10616 10618 10619 10620 10620 10621 10621 10621 10622 10623 10623
10541 10544 10546 10548 10549 10549 10550 10553 10555 10557 10559 10560 10562 10565 10567 10569 10570 10571 10573 10574 10576 10577 10578 10580 10581 10582 10583 10584 10584 10584 10585 10587 10588 10590 10591 10592 10593 10595 10597 10599 10601 10602 10603 10604 10608 10614 10619 10628 10636 10635 10628 10622 10618 10613 10609 10609 10611 10614 10615 10615 10613 10608 10608 10612 10612 10610 10611 10610 10610 10610 10610 10610 10610 10611 10612 10613 10614 10615 10616 10616 10616 10616 10617 10617 10618 10618
10536 10539 10541 10542 10543 10543 10544 10547 10550 10551 10553 10555 10557 10559 10561 10563 10565 10566 10567 10569 10571 10572 10574 10575 10576 10577 10578 10580 10579 10579 10580 10581 10583 10585 10587 10588 10589 10590 10592 10594 10596 10597 10598 10598 10602 10610 10619 10630 10637 10634 10627 10618 10608 10601 10601 10605 10608 10610 10611 10609 10607 10606 10608 10609 10608 10608 10608 10607 10607 10607 10606 10607 10607 10608 10609 10610 10611 10612 10612 10612 10612 10612 10613 10613 10614 10614
10530 10533 10534 10536 10536 10537 10539 10542 10544 10546 10548 10550 10551 10553 10556 10558 10560 10561 10562 10564 10566 10567 10569 10571 10572 10572 10573 10574 10575 10575 10576 10577 10579 10580 10582 10583 10584 10585 10586 10588 10590 10592 10593 10593 10597 10606 10617 10626 10627 10622 10618 10609 10599 10595 10598 10604 10607 10607 10606 10604 10602 10603 10604 10604 10603 10603 10603 10603 10602 10602 10602 10602 10603 10603 10605 10606 10607 10607 10609 10609 10608 10608 10609 10610 10610 10610
10524 10526 10528 10529 10530 10532 10534 10537 10539 10540 10542 10544 10546 10548 10551 10553 10554 10556 10558 10559 10561 10563 10564 10566 10567 10567 10568 10569 10569 10570 10571 10573 10574 10575 10577 10578 10579 10580 10581 10582 10584 10586 10588 10589 10593 10602 10611 10615 10613 10608 10605 10601 10598 10600 10601 10603 10604 10603 10602 10600 10598 10599 10600 10599 10598 10598 10598 10598 10597 10597 10597 10597 10597 10599 10600 10601 10602 10603 10605 10606 10605 10604 10605 10606 10606 10606
10518 10520 10522 10524 10525 10527 10530 10532 10534 10535 10537 10538 10541 10543 10546 10548 10550 10551 10553 10555 10556 10558 10558 10560 10562 10563 10564 10565 10564 10565 10567 10569 10569 10570 10572 10572 10572 10573 10575 10577 10579 10581 10584 10586 10589 10597 10603 10604 10602 10601 10600 10600 10602 10605 10604 10603 10601 10600 10599 10596 10594 10595 10595 10595 10594 10594 10593 10593 10592 10592 10592 10592 10593 10593 10595 10596 10597 10599 10601 10601 10601 10600 10601 10602 10602 10602
10512 10514 10516 10519 10520 10522 10525 10527 10528 10529 10531 10532 10535 10538 10541 10543 10545 10546 10548 10550 10551 10552 10553 10554 10556 10557 10559 10560 10560 10560 10561 10563 10564 10565 10566 10566 10567 10568 10569 10571 10574 10577 10580 10582 10584 10589 10594 10594 10594 10595 10598 10601 10605 10608 10607 10604 10599 10595 10593 10590 10589 10590 10590 10590 10590 10590 10589 10589 10589 10589 10588 10588 10588 10588 10589 10590 10591 10593 10596 10597 10597 10596 10596 10597 10598 10599
10506 10508 10511 10513 10515 10516 10518 10520 10521 10523 10525 10527 10529 10533 10536 10538 10540 10541 10543 10544 10545 10546 10548 10549 10550 10552 10554 10555 10555 10554 10555 10556 10557 10559 10561 10562 10562 10563 10565 10566 10569 10572 10575 10577 10579 10582 10586 10587 10588 10591 10595 10601 10607 10610 10607 10599 10592 10587 10583 10583 10585 10586 10585 10585 10585 10585 10585 10585 10586 10585 10584 10584 10583 10583 10584 10585 10585 10586 10589 10592 10593 10592 10592 10593 10593 10594
10499 10502 10504 10506 10508 10510 10511 10513 10514 10517 10519 10522 10524 10527 10529 10532 10534 10535 10537 10538 10540 10541 10543 10544 10546 10547 10548 10548 10548 10548 10549 10550 10552 10554 10555 10557 10558 10559 10560 10562 10564 10567 10569 10572 10574 10576 10580 10582 10584 10588 10592 10598 10603 10604 10599 10587 10578 10577 10577 10578 10580 10580 10580 10580 10580 10580 10581 10581 10582 10581 10580 10580 10579 10579 10579 10579 10580 10580 10581 10584 10587 10588 10588 10587 10588 10589
10492 10494 10497 10499 10501 10504 10505 10506 10509 10512 10514 10516 10518 10520 10522 10525 10527 10529 10531 10533 10534 10536 10538 10539 10541 10542 10542 10542 10542 10543 10543 10545 10546 10548 10550 10552 10553 10554 10555 10557 10559 10562 10564 10567 10569 10571 10574 10576 10578 10582 10586 10592 10595 10594 10587 10574 10567 10569 10570 10570 10574 10575 10575 10575 10575 10575 10575 10575 10576 10576 10576 10576 10576 10576 10575 10575 10575 10576 10576 10577 10579 10581 10582 10582 10582 10583
10485 10487 10490 10493 10496 10498 10499 10501 10504 10506 10508 10511 10513 10514 10515 10518 10521 10523 10525 10528 10529 10531 10532 10533 10535 10536 10536 10536 10536 10536 10537 10539 10541 10543 10545 10546 10548 10549 10550 10552 10555 10557 10560 10562 10564 10566 10569 10570 10572 10574 10577 10583 10585 10582 10574 10564 10562 10565 10564 10565 10569 10570 10571 10571 10570 10569 10569 10569 10570 10571 10572 10573 10573 10573 10572 10572 10572 10572 10572 10572 10573 10574 10575 10576 10576 10577
10479 10480 10483 10487 10489 10491 10493 10496 10498 10500 10502 10505 10507 10508 10508 10511 10515 10517 10519 10522 10524 10525 10527 10528 10529 10530 10530 10530 10529 10529 10531 10533 10535 10537 10540 10541 10543 10544 10546 10548 10550 10553 10555 10558 10560 10562 10564 10565 10567 10568 10570 10573 10574 10571 10566 10561 10560 10560 10559 10561 10564 10564 10565 10565 10563 10564 10564 10564 10565 10566 10567 10568 10569 10570 10569 10569 10568 10568 10568 10568 10568 10569 10569 10569 10569 10569
10474 10474 10477 10480 10482 10484 10487 10489 10492 10494 10496 10498 10500 10501 10502 10505 10508 10510 10512 10515 10517 10519 10521 10522 10523 10524 10524 10523 10523 10524 10525 10527 10529 10531 10534 10535 10537 10539 10541 10544 10546 10548 10550 10553 10555 10557 10559 10560 10561 10562 10563 10565 10565 10562 10560 10558 10556 10555 10554 10555 10558 10558 10558 10557 10557 10558 10559 10560 10560 10561 10562 10563 10564 10564 10565 10564 10564 10563 10563 10563 10563 10563 10563 10563 10563 10563
10468 10469 10470 10474 10475 10478 10481 10484 10486 10489 10490 10492 10494 10496 10497 10499 10501 10503 10505 10508 10510 10513 10515 10516 10518 10519 10517 10517 10518 10520 10521 10521 10523 10525 10527 10528 10530 10533 10536 10538 10540 10543 10545 10547 10548 10550 10551 10553 10555 10555 10554 10556 10556 10553 10552 10551 10550 10549 10548 10548 10549 10551 10550 10550 10551 10552 10553 10555 10555 10556 10556 10557 10558 10559 10559 10560 10559 10558 10557 10557 10557 10557 10557 10557 10558 10558
10463 10464 10465 10468 10470 10472 10476 10478 10480 10482 10484 10486 10488 10489 10491 10493 10494 10496 10499 10501 10504 10507 10509 10511 10512 10511 10510 10511 10514 10515 10515 10516 10517 10519 10520 10522 10524 10526 10529 10532 10534 10537 10539 10541 10542 10541 10541 10544 10547 10547 10547 10548 10547 10544 10543 10542 10542 10542 10541 10540 10541 10542 10542 10543 10545 10546 10548 10549 10550 10550 10551 10551 10552 10553 10554 10554 10554 10552 10551 10551 10551 10551 10551 10552 10553 10553
10458 10459 10459 10461 10465 10468 10471 10473 10474 10476 10478 10480 10482 10483 10485 10487 10489 10490 10492 10495 10498 10500 10502 10504 10505 10504 10504 10506 10508 10508 10509 10510 10511 10513 10515 10517 10519 10521 10523 10526 10528 10530 10532 10534 10535 10534 10535 10537 10539 10540 10540 10540 10540 10539 10537 10536 10535 10535 10534 10534 10535 10536 10537 10538 10539 10540 10542 10542 10544 10544 10545 10545 10546 10547 10547 10547 10547 10547 10545 10544 10544 10545 10545 10546 10547 10547
10452 10453 10453 10456 10460 10463 10465 10467 10469 10471 10472 10474 10476 10477 10479 10481 10483 10485 10487 10489 10491 10493 10495 10498 10499 10498 10498 10500 10501 10502 10503 10504 10505 10508 10509 10511 10514 10515 10517 10520 10522 10524 10525 10527 10528 10528 10529 10531 10533 10533 10533 10533 10534 10534 10533 10532 10531 10530 10529 10529 10530 10532 10533 10534 10534 10535 10536 10536 10537 10537 10538 10539 10540 10540 10540 10541 10541 10540 10539 10538 10537 10537 10538 10539 10540 10541
10446 10447 10447 10450 10454 10457 10459 10462 10463 10465 10467 10468 10470 10472 10473 10475 10477 10479 10481 10482 10484 10487 10489 10490 10492 10491 10491 10493 10495 10496 10498 10499 10500 10501 10503 10505 10507 10509 10511 10513 10515 10517 10518 10520 10521 10522 10523 10525 10526 10527 10527 10527 10528 10529 10529 10528 10527 10526 10526 10525 10526 10528 10529 10530 10530 10530 10530 10530 10530 10530 10531 10532 10533 10534 10534 10533 10532 10532 10531 10531 10531 10531 10531 10532 10533 10533
10439 10440 10441 10444 10448 10451 10454 10456 10458 10459 10460 10461 10463 10465 10466 10468 10470 10472 10474 10476 10478 10480 10482 10483 10485 10484 10484 10486 10488 10489 10491 10493 10494 10495 10497 10498 10500 10502 10504 10506 10507 10509 10511 10513 10515 10516 10517 10517 10519 10520 10521 10522 10523 10523 10524 10524 10523 10523 10522 10522 10523 10523 10524 10523 10524 10524 10524 10523 10523 10523 10524 10525 10527 10529 10528 10525 10523 10523 10523 10523 10524 10525 10525 10525 10525 10525
10432 10433 10435 10439 10442 10446 10448 10449 10449 10450 10452 10454 10456 10458 10460 10462 10464 10466 10468 10470 10472 10474 10475 10477 10478 10477 10478 10480 10482 10483 10484 10486 10487 10488 10490 10491 10492 10494 10496 10498 10500 10502 10504 10506 10508 10509 10510 10510 10511 10512 10514 10515 10516 10517 10517 10517 10517 10517 10517 10517 10517 10517 10517 10517 10517 10517 10517 10517 10516 10516 10516 10518 10521 10523 10521 10517 10515 10515 10515 10516 10517 10518 10518 10518 10517 10517
10425 10425 10429 10433 10435 10438 10440 10440 10442 10444 10446 10448 10450 10453 10455 10456 10458 10460 10461 10463 10465 10467 10469 10470 10471 10471 10472 10473 10474 10476 10477 10479 10480 10481 10482 10483 10485 10486 10488 10490 10492 10495 10497 10499 10500 10501 10502 10502 10503 10504 10505 10506 10508 10509 10509 10510 10510 10510 10510 10510 10510 10509 10509 10510 10510 10510 10510 10509 10508 10508 10509 10510 10512 10514 10514 10512 10509 10508 10509 10510 10510 10511 10511 10511 10510 10510
10417 10418 10422 10425 10428 10430 10432 10434 10436 10437 10440 10442 10444 10446 10448 10449 10451 10452 10454 10456 10458 10460 10462 10463 10464 10465 10465 10466 10467 10468 10470 10472 10473 10474 10474 10475 10476 10478 10480 10482 10484 10486 10489 10491 10492 10493 10494 10495 10496 10497 10498 10499 10499 10500 10501 10502 10502 10502 10502 10502 10501 10501 10501 10502 10502 10502 10502 10502 10501 10501 10502 10502 10503 10504 10505 10505 10503 10502 10502 10503 10503 10503 10503 10503 10503 10502
10411 10411 10413 10417 10420 10423 10425 10428 10429 10430 10432 10434 10437 10439 10440 10442 10444 10445 10446 10448 10451 10453 10454 10456 10458 10459 10459 10460 10460 10461 10463 10464 10465 10466 10466 10467 10468 10469 10471 10473 10475 10477 10480 10482 10483 10484 10486 10487 10489 10490 10491 10491 10492 10492 10493 10494 10494 10494 10494 10493 10493 10493 10493 10493 10493 10493 10493 10494 10494 10494 10495 10495 10495 10495 10495 10495 10495 10495 10495 10495 10495 10496 10495 10495 10495 10495
10406 10406 10406 10409 10413 10416 10418 10420 10421 10422 10423 10426 10429 10431 10432 10434 10435 10437 10438 10441 10443 10446 10447 10448 10450 10451 10452 10453 10453 10454 10454 10455 10456 10457 10458 10458 10459 10461 10462 10464 10466 10468 10471 10473 10474 10476 10477 10479 10480 10482 10483 10483 10484 10484 10485 10485 10485 10485 10485 10484 10484 10483 10483 10483 10484 10485 10485 10485 10485 10486 10487 10488 10488 10488 10487 10486 10486 10487 10487 10486 10487 10488 10488 10488 10487 10487
10400 10400 10401 10403 10406 10408 10410 10412 10413 10414 10415 10418 10420 10422 10425 10426 10428 10429 10430 10433 10436 10438 10439 10440 10441 10443 10445 10446 10446 10446 10446 10447 10448 10449 10449 10450 10450 10451 10453 10454 10456 10458 10461 10463 10465 10467 10468 10470 10472 10473 10474 10475 10475 10475 10475 10475 10475 10475 10474 10474 10474 10474 10473 10473 10474 10474 10475 10476 10476 10477 10479 10480 10480 10480 10479 10478 10478 10478 10479 10479 10479 10479 10480 10480 10479 10479
10394 10395 10397 10397 10399 10401 10403 10404 10406 10407 10408 10410 10412 10414 10416 10418 10420 10421 10423 10425 10428 10430 10431 10432 10434 10435 10437 10438 10438 10439 10438 10439 10439 10439 10440 10441 10441 10442 10443 10444 10446 10448 10450 10453 10455 10457 10458 10460 10462 10464 10465 10465 10465 10465 10465 10464 10464 10463 10463 10464 10464 10464 10464 10464 10464 10464 10464 10465 10466 10468 10469 10471 10472 10472 10472 10471 10470 10470 10470 10471 10471 10471 10472 10472 10472 10472
10387 10389 10391 10391 10392 10394 10396 10397 10398 10400 10402 10404 10405 10406 10408 10410 10412 10414 10415 10416 10419 10421 10422 10424 10426 10426 10427 10429 10430 10430 10429 10429 10429 10429 10430 10431 10432 10434 10434 10435 10437 10438 10440 10442 10444 10446 10448 10450 10451 10453 10454 10454 10455 10454 10454 10453 10453 10453 10453 10454 10454 10454 10454 10454 10454 10454 10454 10455 10456 10457 10459 10460 10462 10463 10463 10463 10462 10461 10461 10462 10463 10463 10464 10464 10464 10464
10381 10382 10384 10384 10385 10387 10389 10389 10391 10395 10398 10399 10399 10400 10402 10404 10405 10407 10407 10408 10410 10412 10412 10414 10415 10416 10417 10418 10419 10420 10420 10420 10421 10421 10422 10424 10426 10427 10427 10428 10429 10429 10431 10433 10434 10436 10437 10439 10440 10441 10442 10442 10442 10442 10442 10443 10443 10444 10444 10444 10443 10444 10444 10444 10444 10445 10446 10447 10447 10447 10447 10448 10450 10451 10452 10453 10453 10452 10452 10453 10453 10454 10456 10456 10456 10456
10374 10375 10376 10377 10378 10380 10382 10383 10387 10391 10392 10391 10391 10394 10396 10397 10398 10398 10399 10399 10400 10401 10403 10404 10406 10407 10408 10409 10409 10410 10411 10412 10414 10415 10416 10418 10421 10421 10419 10419 10420 10421 10422 10424 10425 10427 10428 10428 10429 10429 10430 10429 10429 10430 10431 10433 10434 10434 10434 10433 10433 10434 10435 10434 10435 10436 10438 10437 10437 10436 10435 10436 10438 10439 10440 10441 10441 10442 10442 10442 10443 10445 10446 10447 10447 10448
10367 10368 10369 10369 10370 10372 10375 10377 10382 10385 10384 10383 10386 10388 10388 10389 10389 10389 10389 10390 10391 10392 10394 10396 10398 10399 10400 10401 10401 10402 10403 10405 10406 10408 10410 10412 10413 10412 10411 10411 10412 10413 10414 10415 10417 10418 10418 10418 10419 10419 10419 10418 10417 10419 10422 10422 10423 10423 10423 10423 10424 10425 10425 10424 10424 10426 10427 10426 10425 10424 10425 10426 10427 10427 10428 10429 10430 10430 10431 10432 10433 10434 10436 10437 10437 10437
10360 10361 10362 10362 10363 10364 10367 10369 10373 10376 10377 10379 10380 10380 10380 10380 10379 10380 10381 10381 10383 10385 10386 10388 10389 10390 10391 10391 10392 10393 10394 10396 10398 10400 10401 10403 10403 10404 10404 10404 10405 10406 10407 10407 10408 10409 10408 10409 10410 10410 10411 10409 10407 10409 10410 10410 10411 10413 10414 10414 10415 10415 10415 10413 10413 10414 10415 10415 10414 10414 10415 10417 10417 10417 10417 10418 10418 10419 10420 10422 10423 10424 10425 10426 10426 10426
10351 10352 10353 10354 10355 10357 10359 10361 10365 10369 10372 10373 10372 10371 10371 10371 10370 10372 10372 10373 10375 10377 10377 10378 10378 10379 10380 10381 10382 10383 10385 10386 10388 10390 10391 10393 10393 10394 10396 10396 10397 10398 10399 10399 10400 10400 10400 10400 10400 10401 10401 10400 10398 10398 10398 10398 10400 10402 10403 10404 10404 10404 10403 10403 10402 10403 10404 10405 10405 10405 10407 10409 10408 10407 10407 10408 10409 10409 10410 10411 10412 10413 10414 10415 10415 10416
10343 10343 10344 10345 10346 10348 10350 10352 10356 10360 10364 10364 10363 10362 10361 10361 10361 10362 10363 10366 10369 10368 10367 10367 10369 10369 10371 10372 10372 10374 10375 10376 10377 10379 10380 10382 10383 10384 10385 10386 10388 10389 10390 10391 10392 10392 10392 10392 10391 10391 10391 10391 10390 10390 10389 10388 10388 10390 10391 10392 10393 10393 10393 10392 10392 10393 10394 10395 10395 10396 10397 10397 10397 10396 10397 10398 10399 10400 10401 10402 10403 10404 10404 10405 10406 10407
10335 10335 10336 10337 10339 10341 10342 10343 10346 10351 10355 10356 10354 10352 10351 10351 10351 10352 10355 10360 10360 10357 10356 10358 10360 10360 10362 10362 10363 10364 10365 10366 10367 10368 10369 10370 10372 10373 10374 10375 10377 10378 10379 10380 10381 10382 10383 10383 10383 10382 10382 10382 10382 10381 10381 10380 10379 10379 10379 10380 10381 10381 10382 10382 10382 10383 10383 10384 10384 10384 10384 10385 10385 10385 10386 10387 10389 10390 10392 10393 10394 10395 10396 10396 10397 10398
10325 10326 10328 10329 10331 10332 10334 10335 10338 10342 10346 10347 10345 10344 10343 10342 10343 10345 10349 10350 10349 10347 10348 10349 10350 10351 10352 10353 10354 10355 10355 10356 10356 10357 10358 10359 10360 10361 10362 10363 10365 10366 10367 10368 10368 10370 10371 10372 10373 10373 10373 10373 10373 10373 10372 10371 10370 10370 10369 10369 10369 10369 10370 10371 10371 10371 10372 10373 10373 10373 10373 10373 10373 10373 10374 10376 10378 10379 10381 10382 10384 10385 10387 10388 10389 10389
10315 10316 10319 10320 10322 10323 10325 10326 10329 10333 10336 10337 10336 10335 10335 10335 10336 10339 10340 10339 10339 10339 10340 10340 10340 10341 10343 10343 10344 10345 10345 10346 10346 10347 10348 10348 10349 10350 10351 10352 10352 10353 10354 10355 10355 10357 10358 10360 10361 10362 10362 10363 10363 10363 10362 10361 10360 10360 10359 10358 10358 10359 10359 10359 10359 10360 10360 10361 10362 10362 10362 10362 10361 10361 10363 10364 10365 10367 10369 10371 10373 10375 10377 10378 10380 10381
10307 10307 10309 10310 10312 10314 10315 10317 10319 10323 10325 10325 10325 10325 10326 10327 10329 10330 10330 10330 10330 10330 10331 10331 10331 10332 10332 10333 10333 10334 10334 10335 10335 10336 10337 10337 10338 10339 10339 10340 10340 10341 10342 10342 10343 10344 10345 10346 10347 10348 10349 10350 10351 10351 10351 10351 10350 10350 10349 10348 10348 10348 10349 10349 10349 10349 10349 10349 10349 10350 10350 10350 10350 10349 10351 10351 10352 10354 10356 10358 10361 10363 10365 10367 10369 10371
10299 10299 10300 10301 10303 10304 10305 10307 10310 10313 10315 10315 10315 10316 10317 10318 10319 10320 10320 10321 10321 10321 10321 10321 10321 10321 10322 10322 10322 10323 10323 10323 10323 10324 10325 10325 10326 10327 10326 10326 10327 10328 10329 10329 10330 10330 10331 10332 10333 10334 10335 10337 10338 10339 10339 10339 10339 10339 10338 10337 10338 10338 10339 10339 10339 10340 10339 10338 10338 10338 10338 10339 10339 10338 10338 10338 10339 10340 10342 10344 10347 10350 10353 10355 10357 10359
10290 10291 10291 10293 10294 10294 10295 10297 10299 10302 10304 10305 10306 10306 10307 10308 10309 10309 10310 10311 10311 10311 10312 10311 10311 10312 10312 10311 10312 10312 10312 10312 10312 10312 10312 10313 10314 10314 10314 10313 10314 10314 10314 10315 10315 10316 10316 10317 10318 10319 10320 10322 10323 10325 10326 10327 10327 10326 10325 10324 10325 10326 10327 10327 10328 10329 10329 10328 10328 10327 10327 10328 10328 10328 10328 10327 10327 10327 10329 10330 10333 10336 10339 10341 10344 10346
10280 10282 10283 10284 10284 10285 10286 10287 10288 10291 10293 10295 10296 10296 10297 10297 10298 10298 10299 10300 10300 10301 10301 10301 10301 10301 10300 10300 10301 10300 10300 10301 10300 10300 10300 10301 10301 10302 10301 10301 10301 10301 10301 10301 10301 10301 10302 10303 10304 10304 10305 10306 10307 10309 10311 10312 10313 10313 10312 10311 10311 10312 10314 10315 10316 10316 10317 10317 10317 10317 10316 10316 10317 10317 10317 10316 10316 10316 10317 10317 10319 10322 10325 10328 10330 10332
10270 10272 10274 10274 10275 10276 10277 10278 10279 10280 10281 10283 10284 10285 10286 10287 10287 10288 10288 10289 10289 10289 10289 10290 10290 10290 10289 10289 10289 10289 10289 10288 10288 10288 10288 10288 10288 10289 10289 10289 10289 10289 10288 10288 10288 10288 10288 10289 10289 10290 10290 10291 10291 10293 10295 10297 10298 10299 10299 10298 10297 10299 10301 10303 10303 10303 10303 10303 10303 10304 10304 10304 10304 10304 10305 10305 10306 10306 10306 10306 10307 10309 10311 10314 10316 10317
10262 10263 10265 10265 10266 10267 10268 10268 10270 10270 10271 10272 10273 10274 10274 10275 10275 10276 10276 10276 10277 10277 10277 10278 10278 10278 10278 10278 10277 10277 10277 10276 10276 10276 10276 10276 10277 10277 10278 10278 10277 10276 10276 10275 10275 10275 10275 10275 10275 10275 10276 10276 10277 10278 10280 10281 10282 10283 10284 10284 10284 10285 10287 10289 10289 10290 10290 10289 10288 10288 10290 10291 10291 10291 10292 10293 10294 10294 10295 10295 10296 10298 10299 10301 10303 10305
10253 10254 10255 10255 10256 10257 10258 10259 10259 10260 10260 10261 10262 10262 10262 10262 10263 10263 10264 10264 10265 10265 10266 10267 10267 10267 10267 10267 10266 10266 10265 10265 10265 10266 10265 10265 10265 10265 10265 10266 10265 10264 10263 10262 10262 10262 10262 10262 10262 10262 10263 10263 10264 10265 10266 10266 10267 10267 10268 10269 10270 10271 10272 10273 10273 10274 10275 10274 10273 10273 10274 10275 10277 10278 10279 10280 10281 10281 10282 10283 10285 10286 10287 10289 10291 10293
10243 10244 10244 10245 10246 10247 10247 10248 10249 10249 10249 10250 10250 10251 10251 10252 10252 10253 10253 10253 10254 10254 10255 10255 10256 10256 10256 10255 10255 10254 10254 10254 10254 10254 10254 10253 10252 10252 10253 10253 10253 10252 10251 10250 10249 10249 10249 10250 10251 10251 10251 10250 10250 10251 10251 10252 10252 10252 10253 10254 10256 10257 10258 10258 10257 10258 10260 10260 10259 10258 10259 10260 10262 10264 10266 10268 10268 10267 10268 10270 10272 10274 10276 10277 10278 10279
10235 10236 10236 10237 10238 10238 10239 10239 10240 10240 10241 10241 10242 10242 10242 10243 10243 10243 10243 10242 10242 10242 10242 10243 10243 10243 10243 10243 10244 10244 10243 10242 10242 10241 10241 10240 10239 10239 10239 10239 10239 10239 10238 10238 10238 10238 10238 10238 10238 10239 10238 10238 10238 10238 10238 10238 10237 10237 10237 10239 10240 10242 10242 10242 10242 10243 10245 10245 10245 10246 10246 10246 10247 10249 10251 10253 10254 10254 10254 10257 10259 10261 10263 10264 10265 10266